Hourly Weather Roundup
Issued by NWS Central Illinois

Home | Current Version | Previous Version | Text Only | Print | Product List | Glossary On
Versions: 1 2 3 4 5 6 7 8 9 10 11 12 13 14 15 16 17 18 19 20 21 22 23 24 25 26 27 28 29 30 31 32 33 34 35 36 37 38 39 40 41 42 43 44 45 46 47 48 49 50
000
NZUS43 KILX 270910
HWRILX

AREA WEATHER ROUNDUP
NATIONAL WEATHER SERVICE, LINCOLN IL
400 AM CDT WED APR 27 2016


CITY           SKY/WX    TMP DP  RH WIND       PRES   REMARKS
BLOOMINGTON    CLOUDY    49  47  93 E14       29.85R
CHAMPAIGN      CLOUDY    53  49  86 NE15G22   29.80R
DANVILLE       CLOUDY    55  50  85 E15       29.79S
DECATUR        CLOUDY    52  48  86 NE10      29.81R
EFFINGHAM      CLOUDY    56  55  97 NE3       29.79S
FLORA          CLOUDY    62  61  97 E5        29.76F FOG
GALESBURG      CLOUDY    46  42  85 NE15G22   29.82S
JACKSONVILLE   CLOUDY    51  49  93 E17       29.78R FOG
LACON          CLOUDY    46  41  82 E12G17    29.86R
LAWRENCEVILLE  FOG       58  58 100 NE5       29.78S VSB 1
LITCHFIELD     CLOUDY    52  48  88 NE10      29.75F FOG
$$


CITY           SKY/WX    TMP DP  RH WIND       PRES   REMARKS
LINCOLN        CLOUDY    51  48  89 NE10      29.82F
MACOMB         CLOUDY    48  46  91 E16       29.81S
MATTOON        CLOUDY    54  51  90 E5        29.78S
MT CARMEL AP   PTCLDY    57  55  94 E5        29.76F FOG
OLNEY-NOBLE AP FOG       55  55 100 CALM      29.77F VSB 1
PARIS          CLOUDY    59  57  94 NE9       29.81R FOG
PEORIA         CLOUDY    49  43  80 E18G26    29.83S
PONTIAC        CLOUDY    48  45  90 NE24G30   29.84F
RANTOUL        CLOUDY    53  49  86 NE17G23   29.81R
ROBINSON       FOG       56  56 100 CALM      29.79R VSB 1/2
SPRINGFIELD    CLOUDY    53  49  86 E13       29.79F FOG
TAYLORVILLE    NOT AVBL
$$

...REGIONAL REPORTS...


CITY           SKY/WX    TMP DP  RH WIND       PRES   REMARKS
CHICAGO O`HARE CLOUDY    42  34  73 NE16      29.93S WCI  34
KANKAKEE       CLOUDY    48  43  84 NE18      29.87F
MOLINE         CLOUDY    47  39  74 E20       29.85S
MOUNT STERLING CLOUDY    48  47  94 E15       29.78R FOG
MOUNT VERNON   CLOUDY    61  55  82 CALM      29.76S
PITTSFIELD     CLOUDY    50  48  93 E10       29.77F FOG
QUINCY         CLOUDY    50  47  89 E16       29.74S
ROCKFORD       MOCLDY    43  36  76 E12       29.94F
$$


CITY           SKY/WX    TMP DP  RH WIND       PRES   REMARKS
BURLINGTON     CLOUDY    47  44  90 E12G21    29.78F
CEDAR RAPIDS   CLOUDY    45  41  86 E20G26    29.82F
DES MOINES     CLOUDY    47  42  83 E17G28    29.68F
KIRKSVILLE     LGT RAIN  51  46  83 E18G26    29.68S
OTTUMWA        LGT RAIN  45  43  93 E20G31    29.76F
ST LOUIS       CLOUDY    61  58  90 E10       29.72F
$$


CITY           SKY/WX    TMP DP  RH WIND       PRES   REMARKS
TERRE HAUTE    CLOUDY    59  58  96 SE8       29.79R
EVANSVILLE     FOG       58  57  97 CALM      29.77F VSB 3/4
INDIANAPOLIS   CLOUDY    53  48  83 E13       29.83R HAZE
LAFAYETTE      CLOUDY    50  46  86 E16       29.85S
MADISON        CLOUDY    38  33  82 NE12      29.97F WCI  30
MILWAUKEE      CLOUDY    40  36  86 NE10      29.98F WCI  33
$$






USA.gov is the U.S. government's official web portal to all federal, state and local government web resources and services.